Project,Study,Ord_Occ,Event_Num,Cast_ID,Date_Time_UTC,Date_Time_PST,Lat_Dec,Lon_Dec,Sta_ID,Line,Sta,Depth,Pressure,PrQ,Temp1,Temp1Q,Temp2,Temp2Q,TempAve,Salt1,Salt1Q,Salt1_Corr,Salt2,Salt2Q,Salt2_Corr,SaltAve_Corr,Ox1,Ox1Q,Ox1_CruiseCorr,Ox1_StaCorr,Ox2,Ox2Q,Ox2_CruiseCorr,Ox2_StaCorr,OxAve_StaCorr,Ox1uM,Ox1uM_CruiseCorr,Ox1uM_StaCorr,Ox2uM,Ox2uM_CruiseCorr,Ox2uM_StaCorr,OxAveuM_StaCorr,FluorV,FluorQ,EstChl_CruiseCorr,EstChl_StaCorr,ISUSV,ISUSQ,EstNO3_CruiseCorr,EstNO3_StaCorr,SigThetaTS1,SigThetaTS1Q,SigThetaTS2,SigThetaTS2Q,BAT,XMiss,TransQ,pH,pHQ,SPAR,SPARQ,PAR,PARQ,PoT1,PoT2,DynHt,SVA,OxSat1,OxSat2,BTL_Depth,BTL_Temp,SaltB,OxB,OxBuM,Chl-a,Phaeo,NO3,NO2,NH4,PO4,SIL
CalCOFI,2105SH,025,,2105_025d,09-May-2021 15:46:10,09-May-2021 07:46:10,33.88865,-118.48919,086.7 033.0,086.7,033.0,4.000,4.029,,17.3033,,17.3009,,17.3021,33.6840,,33.6852,33.6815,,33.6834,33.6843,6.8843,,7.2657,,6.9783,,7.2875,,,300.122,316.2463,317.5024,304.217,329.2611,319.4273,318.4649,0.2705,,1.6687,2.6078,3.2403,,0.7577,,24.4326,,24.4313,,,,,,,,,,,17.3027,17.3002,0.0019,348.940,125.494,127.199,4,17.322,33.6745,7.165,312.36,2.544,0.602,0.33,0.029,0.00,0.16,0.74
CalCOFI,2105SH,025,,2105_025d,09-May-2021 15:46:18,09-May-2021 07:46:18,33.88866,-118.48918,086.7 033.0,086.7,033.0,5.000,5.036,,17.1262,,17.1352,,17.1307,33.6847,,33.6859,33.6708,,33.6727,33.6793,6.4721,,6.8346,,6.4923,,6.7841,,,282.139,297.4469,298.9297,283.021,309.8394,297.5736,298.2517,0.2620,,1.6145,2.5316,3.1942,,0.7577,,24.4752,,24.4625,,,,,,,,,,,17.1254,17.1344,0.0061,344.915,117.575,117.951,,,,,,,,,,,,
CalCOFI,2105SH,025,,2105_025d,09-May-2021 15:46:19,09-May-2021 07:46:19,33.88866,-118.48918,086.7 033.0,086.7,033.0,6.000,6.043,,16.3737,,16.3764,,16.3751,33.6711,,33.6723,33.6444,,33.6463,33.6593,6.4336,,6.7944,,6.4926,,6.7844,,,280.413,295.6426,297.1471,282.992,307.9753,297.5437,297.3454,0.2324,,1.4230,2.2660,3.1673,,0.7577,,24.6403,,24.6192,,,,,,,,,,,16.3728,16.3754,0.0095,329.214,115.174,116.218,,,,,,,,,,,,
CalCOFI,2105SH,025,,2105_025d,09-May-2021 15:46:21,09-May-2021 07:46:21,33.88866,-118.48917,086.7 033.0,086.7,033.0,7.000,7.050,,16.0806,,16.0775,,16.0791,33.6526,,33.6538,33.6396,,33.6415,33.6477,6.3842,,6.7427,,6.4680,,6.7590,,,278.249,293.3803,294.9121,281.903,305.6382,296.4210,295.6666,0.1895,,1.1381,1.8811,3.1335,,0.7577,,24.6932,,24.6840,,,,,,,,,,,16.0795,16.0764,0.0127,324.204,113.626,115.101,,,,,,,,,,,,
CalCOFI,2105SH,025,,2105_025d,09-May-2021 15:46:22,09-May-2021 07:46:22,33.88866,-118.48918,086.7 033.0,086.7,033.0,8.000,8.058,,15.9849,,15.9875,,15.9862,33.6450,,33.6462,33.6328,,33.6347,33.6405,6.3653,,6.7229,,6.4586,,6.7492,,,277.420,292.5137,294.0559,281.488,304.7429,295.9931,295.0245,0.1774,,1.0561,1.7725,3.0985,,0.7577,,24.7092,,24.6992,,,,,,,,,,,15.9837,15.9862,0.0160,322.718,113.072,114.726,,,,,,,,,,,,
CalCOFI,2105SH,025,,2105_025d,09-May-2021 15:46:23,09-May-2021 07:46:23,33.88866,-118.48918,086.7 033.0,086.7,033.0,9.000,9.065,,15.9213,,15.9267,,15.9240,33.6405,,33.6417,33.6314,,33.6333,33.6375,6.3048,,6.6597,,6.4015,,6.6901,,,274.780,289.7538,291.3294,278.994,301.8917,293.4217,292.3756,0.1753,,1.0418,1.7537,3.0608,,0.7577,,24.7201,,24.7119,,,,,,,,,,,15.9199,15.9253,0.0192,321.708,111.854,113.574,,,,,,,,,,,,
CalCOFI,2105SH,025,,2105_025d,09-May-2021 15:46:25,09-May-2021 07:46:25,33.88866,-118.48918,086.7 033.0,086.7,033.0,10.000,10.072,,15.8132,,15.8105,,15.8119,33.6371,,33.6383,33.6260,,33.6279,33.6331,6.2506,,6.6030,,6.3004,,6.5854,,,272.412,287.2783,288.8837,274.586,299.3342,288.8769,288.8803,0.1698,,1.0043,1.7044,3.0133,,0.7577,,24.7419,,24.7339,,,,,,,,,,,15.8116,15.8090,0.0225,319.665,110.655,111.525,,,,,,,,,,,,
CalCOFI,2105SH,025,,2105_025d,09-May-2021 15:46:26,09-May-2021 07:46:26,33.88866,-118.48918,086.7 033.0,086.7,033.0,11.000,11.079,,15.1832,,15.1773,,15.1803,33.6476,,33.6488,33.6003,,33.6022,33.6255,6.1558,,6.5038,,6.1438,,6.4231,,,268.243,282.9200,284.5780,267.730,294.8317,281.8082,283.1931,0.1973,,1.1906,1.9511,2.9574,,0.7577,,24.8893,,24.8541,,,,,,,,,,,15.1815,15.1757,0.0257,305.655,107.638,107.386,11,16.009,,,290.92,2.040,1.025,3.78,0.091,0.58,0.51,4.59
CalCOFI,2105SH,025,,2105_025d,09-May-2021 15:46:28,09-May-2021 07:46:28,33.88866,-118.48918,086.7 033.0,086.7,033.0,12.000,12.086,,14.6979,,14.6956,,14.6968,33.6377,,33.6389,33.6140,,33.6159,33.6274,5.9460,,6.2844,,5.9114,,6.1824,,,259.076,273.3369,275.1104,257.573,284.9313,271.3360,273.2232,0.3277,,2.0245,3.1210,2.9054,,0.7577,,24.9874,,24.9696,,,,,,,,,,,14.6962,14.6939,0.0287,296.336,102.960,102.341,,,,,,,,,,,,
CalCOFI,2105SH,025,,2105_025d,09-May-2021 15:46:29,09-May-2021 07:46:29,33.88866,-118.48918,086.7 033.0,086.7,033.0,13.000,13.094,,14.4914,,14.4859,,14.4887,33.6405,,33.6417,33.6150,,33.6169,33.6293,5.6823,,6.0086,,5.6599,,5.9219,,,247.573,261.3116,263.2302,246.602,272.5080,260.0246,261.6274,0.3446,,2.1266,3.2726,2.8520,,0.7577,,25.0336,,25.0151,,,,,,,,,,,14.4895,14.4840,0.0316,291.959,97.990,97.577,,,,,,,,,,,,
CalCOFI,2105SH,025,,2105_025d,09-May-2021 15:46:31,09-May-2021 07:46:31,33.88866,-118.48918,086.7 033.0,086.7,033.0,14.000,14.101,,14.1309,,14.1220,,14.1265,33.6476,,33.6488,33.6205,,33.6224,33.6356,5.4391,,5.7543,,5.4533,,5.7079,,,236.957,250.2136,252.2661,237.582,261.0427,250.7247,251.4954,0.3942,,2.4184,3.7176,2.7886,,0.7577,,25.1151,,25.0961,,,,,,,,,,,14.1289,14.1200,0.0345,284.223,93.119,93.330,,,,,,,,,,,,
CalCOFI,2105SH,025,,2105_025d,09-May-2021 15:46:32,09-May-2021 07:46:32,33.88866,-118.48918,086.7 033.0,086.7,033.0,15.000,15.108,,13.9465,,13.9453,,13.9459,33.6483,,33.6495,33.6301,,33.6320,33.6408,5.2241,,5.5295,,5.2697,,5.5178,,,227.582,240.4130,242.5836,229.574,250.9177,242.4682,242.5259,0.5247,,3.1297,4.8884,2.7246,,0.7577,,25.1541,,25.1404,,,,,,,,,,,13.9443,13.9431,0.0374,280.536,89.103,89.869,,,,,,,,,,,,
CalCOFI,2105SH,025,,2105_025d,09-May-2021 15:46:33,09-May-2021 07:46:33,33.88866,-118.48918,086.7 033.0,086.7,033.0,16.000,16.115,,13.8758,,13.8753,,13.8756,33.6531,,33.6543,33.6363,,33.6382,33.6463,5.1207,,5.4213,,5.2006,,5.4462,,,223.075,235.7014,237.9288,226.560,246.0501,239.3607,238.6448,0.5709,,3.3620,5.3029,2.6697,,0.7577,,25.1725,,25.1597,,,,,,,,,,,13.8735,13.8731,0.0402,278.816,87.218,88.569,,,,,,,,,,,,
CalCOFI,2105SH,025,,2105_025d,09-May-2021 15:46:35,09-May-2021 07:46:35,33.88866,-118.48918,086.7 033.0,086.7,033.0,17.000,17.123,,13.8039,,13.8011,,13.8025,33.6543,,33.6555,33.6401,,33.6420,33.6488,5.0269,,5.3232,,5.0952,,5.3370,,,218.985,231.4257,233.7047,221.962,241.6329,234.6201,234.1624,0.6383,,3.6824,5.9076,2.6079,,0.7577,,25.1883,,25.1780,,,,,,,,,,,13.8015,13.7987,0.0430,277.338,85.496,86.644,,,,,,,,,,,,
CalCOFI,2105SH,025,,2105_025d,09-May-2021 15:46:37,09-May-2021 07:46:37,33.88868,-118.48918,086.7 033.0,086.7,033.0,18.000,18.130,,13.6691,,13.6756,,13.6724,33.6553,,33.6565,33.6373,,33.6392,33.6479,4.8280,,5.1152,,4.8875,,5.1219,,,210.316,222.3631,224.7514,212.908,232.2704,225.2851,225.0183,0.4505,,2.7353,4.2227,2.5156,,0.7577,,25.2168,,25.2015,,,,,,,,,,,13.6666,13.6731,0.0458,274.655,81.890,82.900,,,,,,,,,,,,
CalCOFI,2105SH,025,,2105_025d,09-May-2021 15:46:39,09-May-2021 07:46:39,33.88868,-118.48918,086.7 033.0,086.7,033.0,19.000,19.137,,13.4010,,13.3971,,13.3991,33.6548,,33.6560,33.6375,,33.6394,33.6477,4.6290,,4.9071,,4.6633,,4.8896,,,201.636,213.2891,215.7868,203.130,222.8959,215.2037,215.4953,0.4114,,2.5168,3.8719,2.4296,,0.7577,,25.2710,,25.2585,,,,,,,,,,,13.3984,13.3945,0.0485,269.515,78.084,78.646,,,,,,,,,,,,
CalCOFI,2105SH,025,,2105_025d,09-May-2021 15:46:40,09-May-2021 07:46:40,33.88867,-118.48918,086.7 033.0,086.7,033.0,20.000,20.145,,13.2013,,13.1907,,13.1960,33.6561,,33.6573,33.6324,,33.6343,33.6458,4.4948,,4.7668,,4.6020,,4.8262,,,195.782,207.1693,209.7408,200.453,216.5736,212.4436,211.0922,0.3614,,2.2267,3.4233,2.3687,,0.7577,,25.3122,,25.2960,,,,,,,,,,,13.1986,13.1880,0.0512,265.619,75.510,77.282,,,,,,,,,,,,
CalCOFI,2105SH,025,,2105_025d,09-May-2021 15:46:42,09-May-2021 07:46:42,33.88867,-118.48918,086.7 033.0,086.7,033.0,21.000,21.152,,12.9766,,12.9760,,12.9763,33.6452,,33.6464,33.6303,,33.6322,33.6393,4.4754,,4.7465,,4.5790,,4.8023,,,194.930,206.2786,208.8609,199.445,215.6534,211.4044,210.1327,0.2678,,1.6515,2.5836,2.3110,,0.7577,,25.3486,,25.3372,,,,,,,,,,,12.9738,12.9731,0.0539,262.179,74.832,76.556,,,,,,,,,,,,
CalCOFI,2105SH,025,,2105_025d,09-May-2021 15:46:44,09-May-2021 07:46:44,33.88868,-118.48916,086.7 033.0,086.7,033.0,22.000,22.159,,12.9445,,12.9440,,12.9443,33.6424,,33.6436,33.6314,,33.6333,33.6385,4.4184,,4.6869,,4.4912,,4.7114,,,192.446,203.6818,206.2955,195.617,212.9707,207.4576,206.8766,0.2515,,1.5471,2.4374,2.2539,,0.7577,,25.3528,,25.3444,,,,,,,,,,,12.9416,12.9410,0.0565,261.804,73.829,75.039,,,,,,,,,,,,
CalCOFI,2105SH,025,,2105_025d,09-May-2021 15:46:45,09-May-2021 07:46:45,33.88868,-118.48916,086.7 033.0,086.7,033.0,23.000,23.166,,12.8841,,12.8841,,12.8841,33.6484,,33.6496,33.6376,,33.6395,33.6446,4.3187,,4.5826,,4.4064,,4.6235,,,188.102,199.1406,201.8090,191.921,208.2792,203.6469,202.7280,0.2625,,1.6177,2.5360,2.2060,,0.7577,,25.3695,,25.3610,,,,,,,,,,,12.8810,12.8810,0.0591,260.243,72.076,73.534,,,,,,,,,,,,
CalCOFI,2105SH,025,,2105_025d,09-May-2021 15:46:47,09-May-2021 07:46:47,33.88868,-118.48916,086.7 033.0,086.7,033.0,24.000,24.174,,12.7813,,12.7812,,12.7813,33.6565,,33.6577,33.6453,,33.6472,33.6525,4.2976,,4.5605,,4.3721,,4.5880,,,187.177,198.1736,200.8537,190.425,207.2802,202.1045,201.4791,0.2497,,1.5355,2.4212,2.1662,,0.7577,,25.3960,,25.3873,,,,,,,,,,,12.7781,12.7779,0.0617,257.746,71.575,72.811,,,,,,,,,,,,
CalCOFI,2105SH,025,,2105_025d,09-May-2021 15:46:48,09-May-2021 07:46:48,33.88868,-118.48916,086.7 033.0,086.7,033.0,25.000,25.181,,12.7429,,12.7406,,12.7418,33.6605,,33.6617,33.6526,,33.6545,33.6581,4.2248,,4.4844,,4.2998,,4.5131,,,184.005,194.8576,197.5777,187.273,203.8544,198.8547,198.2162,0.2596,,1.5991,2.5100,2.1286,,0.7577,,25.4066,,25.4009,,,,,,,,,,,12.7396,12.7372,0.0643,256.757,70.308,71.550,,,,,,,,,,,,
CalCOFI,2105SH,025,,2105_025d,09-May-2021 15:46:50,09-May-2021 07:46:50,33.88868,-118.48916,086.7 033.0,086.7,033.0,26.000,26.188,,12.6526,,12.6548,,12.6537,33.6682,,33.6694,33.6572,,33.6591,33.6643,4.1272,,4.3823,,4.2216,,4.4321,,,179.749,190.4084,193.1821,183.861,199.2579,195.3368,194.2595,0.2344,,1.4361,2.2839,2.0896,,0.7577,,25.4303,,25.4213,,,,,,,,,,,12.6491,12.6514,0.0669,254.531,68.558,70.125,,,,,,,,,,,,
CalCOFI,2105SH,025,,2105_025d,09-May-2021 15:46:52,09-May-2021 07:46:52,33.88868,-118.48916,086.7 033.0,086.7,033.0,27.000,27.196,,12.5334,,12.5323,,12.5329,33.6671,,33.6683,33.6577,,33.6596,33.6640,4.0895,,4.3429,,4.1786,,4.3876,,,178.104,188.6887,191.4832,181.984,197.4813,193.4016,192.4424,0.2152,,1.3099,2.1117,2.0570,,0.7577,,25.4526,,25.4455,,,,,,,,,,,12.5298,12.5287,0.0695,252.429,67.764,69.234,,,,,,,,,,,,
CalCOFI,2105SH,025,,2105_025d,09-May-2021 15:46:54,09-May-2021 07:46:54,33.88868,-118.48916,086.7 033.0,086.7,033.0,28.000,28.203,,12.4927,,12.4924,,12.4926,33.6642,,33.6654,33.6572,,33.6591,33.6623,4.0516,,4.3033,,4.1360,,4.3435,,,176.451,186.9607,189.7759,180.128,195.6961,191.4880,190.6320,0.1898,,1.1401,1.8838,2.0318,,0.7577,,25.4582,,25.4529,,,,,,,,,,,12.4890,12.4887,0.0720,251.916,67.077,68.472,,,,,,,,,,,,
CalCOFI,2105SH,025,,2105_025d,09-May-2021 15:46:55,09-May-2021 07:46:55,33.88868,-118.48916,086.7 033.0,086.7,033.0,29.000,29.210,,12.4750,,12.4748,,12.4749,33.6638,,33.6650,33.6579,,33.6598,33.6624,4.0064,,4.2560,,4.0676,,4.2726,,,174.485,184.9054,187.7455,177.151,193.5728,188.4186,188.0821,0.1751,,1.0405,1.7519,2.0093,,0.7577,,25.4614,,25.4568,,,,,,,,,,,12.4712,12.4710,0.0745,251.645,66.306,67.316,,,,,,,,,,,,
CalCOFI,2105SH,025,,2105_025d,09-May-2021 15:46:57,09-May-2021 07:46:57,33.88868,-118.48916,086.7 033.0,086.7,033.0,30.000,30.218,,12.4346,,12.4341,,12.4344,33.6644,,33.6656,33.6577,,33.6596,33.6626,3.9401,,4.1867,,3.9957,,4.1981,,,171.596,181.8853,184.7617,174.016,190.4527,185.1863,184.9740,0.1558,,0.9081,1.5788,1.9857,,0.7577,,25.4697,,25.4646,,,,,,,,,,,12.4306,12.4302,0.0771,250.879,65.154,66.069,,,,,,,,,,,,
CalCOFI,2105SH,025,,2105_025d,09-May-2021 15:46:59,09-May-2021 07:46:59,33.88870,-118.48915,086.7 033.0,086.7,033.0,31.000,31.225,,12.3870,,12.3869,,12.3870,33.6639,,33.6651,33.6575,,33.6594,33.6623,3.8607,,4.1036,,3.9156,,4.1152,,,168.135,178.2671,181.1873,170.527,186.7148,181.5891,181.3882,0.1709,,1.0118,1.7142,1.9600,,0.7577,,25.4785,,25.4735,,,,,,,,,,,12.3829,12.3828,0.0796,250.064,63.777,64.681,31,12.393,,,181.26,1.751,1.211,11.94,0.253,1.77,1.19,13.09
CalCOFI,2105SH,025,,2105_025d,09-May-2021 15:47:00,09-May-2021 07:47:00,33.88870,-118.48914,086.7 033.0,086.7,033.0,32.000,32.232,,12.3168,,12.3154,,12.3161,33.6630,,33.6642,33.6572,,33.6591,33.6617,3.7968,,4.0368,,3.8476,,4.0447,,,165.350,175.3557,178.3109,167.564,183.7070,178.5341,178.4225,0.1398,,0.7969,1.4352,1.9334,,0.7577,,25.4913,,25.4871,,,,,,,,,,,12.3126,12.3112,0.0821,248.869,62.629,63.463,,,,,,,,,,,,
CalCOFI,2105SH,025,,2105_025d,09-May-2021 15:47:02,09-May-2021 07:47:02,33.88870,-118.48916,086.7 033.0,086.7,033.0,33.000,33.240,,12.2774,,12.2743,,12.2759,33.6617,,33.6629,33.6557,,33.6576,33.6603,3.7152,,3.9515,,3.7614,,3.9555,,,161.795,171.6393,174.6393,163.809,179.8676,174.6626,174.6510,0.1318,,0.7409,1.3634,1.9090,,0.7577,,25.4978,,25.4938,,,,,,,,,,,12.2731,12.2700,0.0846,248.271,61.232,61.988,,,,,,,,,,,,
CalCOFI,2105SH,025,,2105_025d,09-May-2021 15:47:04,09-May-2021 07:47:04,33.88870,-118.48915,086.7 033.0,086.7,033.0,34.000,34.247,,12.1863,,12.1855,,12.1859,33.6627,,33.6639,33.6549,,33.6568,33.6604,3.6323,,3.8648,,3.6790,,3.8701,,,158.183,167.8633,170.9089,160.216,175.9666,170.9581,170.9335,0.1545,,0.8991,1.5671,1.8848,,0.7577,,25.5160,,25.5101,,,,,,,,,,,12.1819,12.1811,0.0871,246.564,59.753,60.516,,,,,,,,,,,,
CalCOFI,2105SH,025,,2105_025d,09-May-2021 15:47:05,09-May-2021 07:47:05,33.88870,-118.48915,086.7 033.0,086.7,033.0,35.000,35.254,,12.0736,,12.0784,,12.0760,33.6615,,33.6627,33.6546,,33.6565,33.6596,3.5490,,3.7776,,3.6132,,3.8020,,,154.552,164.0675,167.1588,157.347,172.0451,168.0001,167.5795,0.1564,,0.9122,1.5841,1.8591,,0.7577,,25.5365,,25.5303,,,,,,,,,,,12.0690,12.0739,0.0896,244.633,58.244,59.300,,,,,,,,,,,,
CalCOFI,2105SH,025,,2105_025d,09-May-2021 15:47:07,09-May-2021 07:47:07,33.88870,-118.48914,086.7 033.0,086.7,033.0,36.000,36.262,,12.0137,,12.0141,,12.0139,33.6603,,33.6615,33.6546,,33.6565,33.6590,3.4942,,3.7203,,3.5665,,3.7536,,,152.163,161.5700,164.6915,155.314,169.4650,165.9040,165.2978,0.1652,,0.9728,1.6631,1.8325,,0.7577,,25.5470,,25.5424,,,,,,,,,,,12.0091,12.0094,0.0920,243.661,57.272,58.456,,,,,,,,,,,,
CalCOFI,2105SH,025,,2105_025d,09-May-2021 15:47:09,09-May-2021 07:47:09,33.88870,-118.48914,086.7 033.0,086.7,033.0,37.000,37.269,,11.9638,,11.9625,,11.9632,33.6624,,33.6636,33.6572,,33.6591,33.6614,3.4729,,3.6981,,3.5455,,3.7318,,,151.235,160.5999,163.7331,154.396,168.4627,164.9576,164.3454,0.1338,,0.7549,1.3814,1.8084,,0.7577,,25.5580,,25.5542,,,,,,,,,,,11.9591,11.9577,0.0945,242.634,56.865,58.049,,,,,,,,,,,,
CalCOFI,2105SH,025,,2105_025d,09-May-2021 15:47:10,09-May-2021 07:47:10,33.88870,-118.48914,086.7 033.0,086.7,033.0,38.000,38.276,,11.9112,,11.9080,,11.9096,33.6602,,33.6614,33.6541,,33.6560,33.6587,3.4488,,3.6729,,3.5074,,3.6924,,,150.185,159.5022,162.6486,152.734,167.3287,163.2440,162.9463,0.1191,,0.6514,1.2495,1.7873,,0.7577,,25.5662,,25.5621,,,,,,,,,,,11.9063,11.9032,0.0969,241.876,56.407,57.358,,,,,,,,,,,,
CalCOFI,2105SH,025,,2105_025d,09-May-2021 15:47:12,09-May-2021 07:47:12,33.88870,-118.48914,086.7 033.0,086.7,033.0,39.000,39.284,,11.7872,,11.7807,,11.7840,33.6571,,33.6583,33.6480,,33.6499,33.6541,3.4263,,3.6493,,3.4816,,3.6656,,,149.200,158.4725,161.6313,151.609,166.2649,162.0841,161.8577,0.1146,,0.6194,1.2091,1.7670,,0.7577,,25.5870,,25.5812,,,,,,,,,,,11.7822,11.7757,0.0994,239.911,55.891,56.782,,,,,,,,,,,,
CalCOFI,2105SH,025,,2105_025d,09-May-2021 15:47:14,09-May-2021 07:47:14,33.88870,-118.48914,086.7 033.0,086.7,033.0,40.000,40.291,,11.5929,,11.5887,,11.5908,33.6525,,33.6537,33.6435,,33.6454,33.6496,3.3967,,3.6184,,3.4623,,3.6457,,,147.906,157.1197,160.2949,150.763,164.8674,161.2118,160.7534,0.1099,,0.5860,1.1670,1.7482,,0.7577,,25.6195,,25.6133,,,,,,,,,,,11.5879,11.5836,0.1018,236.839,55.180,56.237,,,,,,,,,,,,
CalCOFI,2105SH,025,,2105_025d,09-May-2021 15:47:15,09-May-2021 07:47:15,33.88871,-118.48914,086.7 033.0,086.7,033.0,41.000,41.298,,11.4979,,11.4952,,11.4966,33.6533,,33.6545,33.6458,,33.6477,33.6511,3.3649,,3.5851,,3.4260,,3.6081,,,146.520,155.6708,158.8634,149.183,163.3705,159.5828,159.2231,0.1047,,0.5489,1.1203,1.7322,,0.7577,,25.6376,,25.6323,,,,,,,,,,,11.4928,11.4900,0.1041,235.130,54.554,55.539,,,,,,,,,,,,
CalCOFI,2105SH,025,,2105_025d,09-May-2021 15:47:17,09-May-2021 07:47:17,33.88872,-118.48914,086.7 033.0,086.7,033.0,42.000,42.306,,11.3554,,11.3510,,11.3532,33.6577,,33.6589,33.6490,,33.6509,33.6549,3.3323,,3.5510,,3.4065,,3.5879,,,145.098,154.1842,157.3948,148.327,161.8347,158.7002,158.0475,0.1171,,0.6372,1.2316,1.7162,,0.7577,,25.6671,,25.6611,,,,,,,,,,,11.3502,11.3458,0.1065,232.345,53.865,55.055,,,,,,,,,,,,
CalCOFI,2105SH,025,,2105_025d,09-May-2021 15:47:19,09-May-2021 07:47:19,33.88872,-118.48914,086.7 033.0,086.7,033.0,43.000,43.313,,11.2941,,11.2941,,11.2941,33.6597,,33.6609,33.6545,,33.6564,33.6587,3.3244,,3.5428,,3.3915,,3.5723,,,144.750,153.8205,157.0354,147.672,161.4589,158.0249,157.5302,0.1241,,0.6867,1.2944,1.7006,,0.7577,,25.6799,,25.6758,,,,,,,,,,,11.2888,11.2888,0.1088,231.148,53.667,54.748,,,,,,,,,,,,
CalCOFI,2105SH,025,,2105_025d,09-May-2021 15:47:21,09-May-2021 07:47:21,33.88872,-118.48914,086.7 033.0,086.7,033.0,44.000,44.321,,11.2887,,11.2886,,11.2887,33.6600,,33.6612,33.6559,,33.6578,33.6595,3.3206,,3.5388,,3.3944,,3.5753,,,144.584,153.6469,156.8640,147.798,161.2796,158.1548,157.5094,0.1320,,0.7423,1.3652,1.6894,,0.7577,,25.6811,,25.6779,,,,,,,,,,,11.2833,11.2831,0.1112,231.054,53.599,54.789,,,,,,,,,,,,
CalCOFI,2105SH,025,,2105_025d,09-May-2021 15:47:22,09-May-2021 07:47:22,33.88872,-118.48914,086.7 033.0,086.7,033.0,45.000,45.328,,11.2927,,11.2928,,11.2928,33.6596,,33.6608,33.6565,,33.6584,33.6596,3.3145,,3.5324,,3.3870,,3.5677,,,144.318,153.3688,156.5892,147.475,160.9923,157.8218,157.2055,0.1201,,0.6584,1.2585,1.6812,,0.7577,,25.6800,,25.6776,,,,,,,,,,,11.2871,11.2873,0.1135,231.179,53.505,54.674,,,,,,,,,,,,
CalCOFI,2105SH,025,,2105_025d,09-May-2021 15:47:24,09-May-2021 07:47:24,33.88872,-118.48914,086.7 033.0,086.7,033.0,46.000,46.335,,11.2942,,11.2946,,11.2944,33.6596,,33.6608,33.6567,,33.6586,33.6597,3.3011,,3.5184,,3.3697,,3.5497,,,143.737,152.7615,155.9892,146.722,160.3649,157.0454,156.5173,0.1093,,0.5817,1.1616,1.6735,,0.7577,,25.6798,,25.6774,,,,,,,,,,,11.2885,11.2889,0.1158,231.222,53.291,54.397,,,,,,,,,,,,
CalCOFI,2105SH,025,,2105_025d,09-May-2021 15:47:25,09-May-2021 07:47:25,33.88872,-118.48913,086.7 033.0,086.7,033.0,47.000,47.343,,11.2831,,11.2833,,11.2832,33.6611,,33.6623,33.6586,,33.6605,33.6614,3.2908,,3.5076,,3.3523,,3.5317,,,143.287,152.2910,155.5244,145.965,159.8789,156.2650,155.8947,0.1282,,0.7156,1.3311,1.6656,,0.7577,,25.6830,,25.6810,,,,,,,,,,,11.2773,11.2775,0.1181,230.949,53.113,54.104,,,,,,,,,,,,
CalCOFI,2105SH,025,,2105_025d,09-May-2021 15:47:27,09-May-2021 07:47:27,33.88872,-118.48912,086.7 033.0,086.7,033.0,48.000,48.350,,11.2546,,11.2530,,11.2538,33.6641,,33.6653,33.6612,,33.6631,33.6642,3.2816,,3.4980,,3.3389,,3.5178,,,142.885,151.8708,155.1093,145.382,159.4447,155.6639,155.3866,0.1433,,0.8213,1.4666,1.6570,,0.7577,,25.6905,,25.6885,,,,,,,,,,,11.2487,11.2470,0.1205,230.256,52.933,53.855,,,,,,,,,,,,
CalCOFI,2105SH,025,,2105_025d,09-May-2021 15:47:29,09-May-2021 07:47:29,33.88872,-118.48912,086.7 033.0,086.7,033.0,49.000,49.358,,11.2235,,11.2229,,11.2232,33.6668,,33.6680,33.6643,,33.6662,33.6671,3.2455,,3.4602,,3.2823,,3.4592,,,141.312,150.2264,153.4847,142.916,157.7459,153.1213,153.3030,0.1166,,0.6336,1.2271,1.6473,,0.7577,,25.6983,,25.6964,,,,,,,,,,,11.2174,11.2169,0.1228,229.539,52.317,52.909,,,,,,,,,,,,
CalCOFI,2105SH,025,,2105_025d,09-May-2021 15:47:31,09-May-2021 07:47:31,33.88874,-118.48912,086.7 033.0,086.7,033.0,50.000,50.365,,11.1790,,11.1752,,11.1771,33.6710,,33.6722,33.6681,,33.6700,33.6711,3.1386,,3.3484,,3.1749,,3.3480,,,136.658,145.3611,148.6781,138.238,152.7195,148.2982,148.4882,0.1204,,0.6606,1.2612,1.6367,,0.7577,,25.7096,,25.7080,,,,,,,,,,,11.1728,11.1691,0.1251,228.479,50.548,51.127,,,,,,,,,,,,
CalCOFI,2105SH,025,,2105_025d,09-May-2021 15:47:32,09-May-2021 07:47:32,33.88874,-118.48912,086.7 033.0,086.7,033.0,51.000,51.372,,11.0723,,11.0667,,11.0695,33.6824,,33.6836,33.6780,,33.6799,33.6818,3.0648,,3.2713,,3.1268,,3.2981,,,133.439,141.9959,145.3535,136.137,149.2430,146.1320,145.7428,0.1221,,0.6726,1.2764,1.6278,,0.7577,,25.7377,,25.7352,,,,,,,,,,,11.0661,11.0604,0.1274,225.828,49.250,50.238,,,,,,,,,,,,
CalCOFI,2105SH,025,,2105_025d,09-May-2021 15:48:09,09-May-2021 07:48:09,33.88877,-118.48908,086.7 033.0,086.7,033.0,52.000,52.380,,10.9898,,10.9820,,10.9859,33.6899,,33.6911,33.6915,,33.6934,33.6923,3.0704,,3.2771,,3.1249,,3.2962,,,133.680,142.2479,145.6024,136.053,149.5033,146.0454,145.8239,0.1061,,0.5589,1.1329,1.5489,,0.7577,,25.7583,,25.7610,,,,,,,,,,,10.9834,10.9756,0.1339,223.883,49.256,50.122,52,10.967,33.6759,3.315,144.33,1.071,1.259,17.26,0.260,1.54,1.49,18.01
